User: anonymous   Login
Location: Caltech
(34.1382°N, 118.1253°W)
Time: 14:40:50
(UTC-08:00)
Language:

Cosmos 2333 Rocket - Orbit

View from above orbital plane
View from above orbital plane
View from above satellite
View from above satellite

Ground track
Ground track

The orbit data is extracted from the following two-line orbital elements,

1 24298U 96051B   15057.25178744 -.00000205  00000-0 -84415-4 0  9997
2 24298 070.8524 036.8514 0016416 345.2129 106.0922 14.12436929952944
Epoch (UTC): 26 February 2015 06:02:34
Eccentricity: 0.0016416
inclination: 70.8524°
perigee height: 839 km
apogee height: 863 km
right ascension of ascending node: 36.8514°
argument of perigee: 345.2129°
revolutions per day: 14.12436929
mean anomaly at epoch: 106.0922°
orbit number at epoch: 95294

The dashed part of the orbit path shows where the satellite is in the earth's shadow,  

DLR